Location: Burbank
(38.7788°N, 114.0429°W)
Time: 13:47:23
(UTC+00:00)

Injun/Solrad 3 - Pass Details

Date: 18 May 2026
Orbit: 867 x 989 km, 66.8° (Epoch: 8 June)

Event Time Altitude Azimuth Distance (km) Brightness Sun altitude
Rises 06:02:40 0° 341° (NNW) 3,681 12.3 -28.0°
Reaches altitude 10° 06:05:52 10° 355° (N) 2,742 11.2 -28.2°
Maximum altitude 06:10:49 23° 46° (NE) 1,983 9.8 -28.6°
Enters shadow 06:13:21 18° 77° (ENE) 2,211 9.7 -28.8°
Drops below altitude 10° 06:15:45 10° 96° (E) 2,745 - -28.9°
Sets 06:18:56 0° 111° (ESE) 3,685 - -29.2°
